Location: Houhaj�rvi
(61.2833°N, 23.0000°E)
Time: 04:53:18
(UTC+00:00)

Mayak - Pass Details

Date: 27 February 2020
Orbit: 581 x 601 km, 97.5° (Epoch: 29 March)

Event Time Altitude Azimuth Distance (km) Brightness Sun altitude
Rises 20:49:45 0° 17° (NNE) 2,870 2.8 -33.2°
Reaches altitude 10° 20:51:58 10° 22° (NNE) 1,962 1.8 -33.3°
Enters shadow 20:52:08 11° 22° (NNE) 1,894 1.7 -33.3°
